www.pogodaiklimat.ru

Погода и климат >> Архив погоды >> Австралия >> Западная Австралия >> Микатарра


ПОГОДА в Микатарре

  • Прогноз погоды в Микатарре
  • Монитор погоды в Микатарре

АРХИВ ПОГОДЫ в Микатарре

Время (UTC), дата Ветер
(напр.,м/с)
 
Видим.   Явления Облачность Т
(С)
Тd
(С)
f
(%)
Тe
(С)
Тes
(С)
Комфортность P
(гПа)
Po
(гПа)
Тmin
(С)
Tmax
(С)
R
(мм)
R24
(мм)
S
(см)
07 19.04 ЮЗ 6 н/о 4/4 1000 м
[]
+20.9 +8.2 44 +22 +23 комфорт 1013.9 955.7
09 19.04 ЮЗ 6 н/о н/о +19.9 +7.3 44 +20 +20 1014.0 955.8
10 19.04 Ю 6 н/о н/о +18.5 +6.4 45 +18 +18 1014.8 956.6
12 19.04 Ю 6 н/о н/о +16.6 +5.6 48 +16 +16 1017.0 958.7
13 19.04 Ю 6 н/о н/о +16.1 +5.1 48 +15 +15 1017.6 959.2 +26.9
15 19.04 Ю 4 н/о н/о +14.3 +4.6 52 +13 +13 1017.7 959.3
16 19.04 Ю 4 н/о н/о +13.6 +4.7 55 +12 +12 1017.6 959.2
18 19.04 Ю 6 н/о н/о +12.3 +3.5 55 +10 +10 1018.3 959.9
19 19.04 Ю 6 н/о н/о +11.3 +4.1 61 +9 +9 1018.6 960.2
21 19.04 Ю 5 н/о н/о +10.0 +4.4 68 +7 +7 1019.8 961.3
22 19.04 Ю 5 н/о н/о +9.5 +4.3 70 +6 +6 1020.2 961.7
00 20.04 ЮВ 7 н/о н/о +11.2 +3.0 57 +8 +8 1021.7 963.1
01 20.04 ЮВ 8 н/о н/о +12.8 +2.6 50 +10 +10 1022.1 963.5 +9.4
03 20.04 ЮВ 8 н/о н/о +15.3 +1.4 39 +14 +14 1021.6 963.0
04 20.04 ЮВ 7 н/о н/о +16.5 +1.0 35 +15 +15 1020.7 962.1
06 20.04 ЮВ 7 н/о н/о +18.5 -1.3 26 +18 +18 1018.9 960.4
07 20.04 ЮВ 6 н/о н/о +19.0 -3.2 22 +18 +18 1018.6 960.2
09 20.04 Ю 7 н/о н/о +18.0 -4.0 22 +17 +17 1018.9 960.4
10 20.04 Ю 7 н/о н/о +16.5 -4.1 24 +15 +15 1019.6 961.1
12 20.04 ЮВ 5 н/о н/о +14.8 -4.0 27 +14 +14 1021.1 962.5
13 20.04 ЮВ 4 н/о н/о +13.8 -3.0 31 +13 +13 1021.4 962.8 +20.0
15 20.04 ЮВ 5 н/о н/о +12.8 -4.3 30 +11 +11 1021.2 962.6
16 20.04 ЮВ 5 н/о н/о +12.1 -4.1 32 +10 +10 1021.3 962.7
18 20.04 ЮВ 6 н/о н/о +11.1 -3.4 36 +9 +9 1021.4 962.8
19 20.04 ЮВ 5 н/о н/о +10.6 -2.8 39 +8 +8 1021.4 962.8
21 20.04 ЮВ 4 н/о н/о +9.6 -2.7 42 +7 +7 1021.5 962.9
22 20.04 В 5 н/о н/о +9.5 -2.8 42 +7 +7 1021.7 963.1
00 21.04 В 8 н/о н/о +12.1 -3.3 34 +9 +9 1023.0 964.3
01 21.04 В 11 н/о н/о +13.9 -4.3 28 +11 +11 1022.7 964.0 +9.5
03 21.04 В 7 н/о н/о +17.6 -4.3 22 +17 +17 1022.0 963.4
04 21.04 В 8 н/о н/о +18.7 -4.7 20 +18 +18 1021.0 962.4
06 21.04 ЮВ 7 н/о н/о +21.3 -4.7 17 +20 +20 1019.3 960.8
07 21.04 В 7 н/о н/о +21.1 -5.7 16 +20 +20 1019.1 960.6
09 21.04 В 7 н/о н/о +20.6 -5.3 17 +20 +20 1018.7 960.3
10 21.04 В 6 н/о н/о +19.2 -4.3 20 +19 +19 1019.2 960.7
12 21.04 В 5 н/о н/о +17.1 -3.1 25 +17 +17 1019.9 961.4
13 21.04 В 4 н/о н/о +15.8 -2.2 29 +15 +15 1020.4 961.9 +22.0
15 21.04 В 5 н/о н/о +14.6 -1.1 34 +13 +13 1020.4 961.9
16 21.04 В 4 н/о н/о +13.7 -0.7 37 +12 +12 1020.1 961.6
18 21.04 В 4 н/о н/о +12.3 -0.2 42 +11 +11 1019.7 961.2
19 21.04 В 4 н/о н/о +11.5 0.0 45 +10 +10 1019.6 961.1
21 21.04 В 4 н/о н/о +10.4 +0.4 50 +8 +8 1019.8 961.3
22 21.04 В 6 н/о н/о +11.9 -0.9 41 +10 +10 1019.5 961.0
00 22.04 В 8 н/о н/о +14.5 -0.8 35 +13 +13 1020.4 961.9
01 22.04 В 7 н/о н/о +16.7 -0.1 32 +16 +16 1020.4 961.9 +10.4
03 22.04 В 6 н/о н/о +20.0 -0.1 26 +20 +20 1019.8 961.3
04 22.04 В 4 н/о н/о +21.1 -0.2 24 +21 +21 комфорт 1018.5 960.1
06 22.04 В 3 н/о н/о +25.1 -0.9 18 +23 +23 комфорт 1017.3 958.9
07 22.04 В 4 н/о н/о +24.9 -1.0 18 +23 +23 комфорт 1016.9 958.6
09 22.04 ЮВ 5 н/о н/о +24.4 -1.4 18 +23 +23 комфорт 1017.4 959.0
10 22.04 ЮВ 4 н/о н/о +22.7 -0.7 21 +22 +22 комфорт 1017.8 959.4
12 22.04 ЮВ 3 н/о н/о +19.0 +1.1 30 +19 +19 1019.5 961.0
13 22.04 ЮВ 4 н/о н/о +18.2 +0.8 31 +18 +18 1019.8 961.3 +25.7
15 22.04 В 5 н/о н/о +17.5 +1.1 33 +17 +17 1019.3 960.8
16 22.04 В 6 н/о н/о +17.0 +1.0 34 +16 +16 1019.1 960.6
18 22.04 В 4 н/о н/о +14.6 +1.8 42 +14 +14 1019.1 960.6
19 22.04 В 4 н/о н/о +14.3 +2.2 44 +13 +13 1018.5 960.1
21 22.04 В 4 н/о н/о +12.6 +2.7 51 +11 +11 1018.7 960.3
22 22.04 В 3 н/о н/о +11.2 +3.0 57 +10 +10 1019.3 960.8
00 23.04 В 4 н/о н/о +16.0 +3.1 42 +15 +15 1020.2 961.7
01 23.04 В 6 н/о н/о +20.5 +2.8 31 +21 +21 комфорт 1020.2 961.7 +11.2
03 23.04 В 5 н/о н/о +24.4 +2.5 24 +24 +24 комфорт 1019.5 961.0
04 23.04 В 4 н/о н/о +26.2 +1.5 20 +25 +25 комфорт 1018.6 960.2
06 23.04 В 4 н/о н/о +27.4 -0.6 16 +25 +25 комфорт 1017.2 958.8
07 23.04 ЮВ 4 н/о н/о +27.8 -1.2 15 +25 +25 комфорт 1017.0 958.7
09 23.04 ЮВ 5 н/о н/о +26.9 -1.0 16 +25 +25 комфорт 1017.7 959.3
10 23.04 ЮВ 5 н/о н/о +25.2 -0.8 18 +23 +23 комфорт 1018.3 959.9
12 23.04 ЮВ 5 н/о н/о +22.5 +0.9 24 +22 +22 комфорт 1019.9 961.4
13 23.04 ЮВ 6 н/о н/о +21.4 +1.7 27 +21 +21 комфорт 1020.2 961.7 +28.4
15 23.04 В 5 н/о н/о +19.7 +2.1 31 +20 +20 1019.9 961.4
16 23.04 В 6 н/о н/о +19.2 +2.1 32 +19 +19 1019.7 961.2
18 23.04 В 5 н/о н/о +17.9 +1.8 34 +18 +18 1019.7 961.2
19 23.04 В 5 н/о н/о +17.7 +1.7 34 +17 +17 1019.5 961.0
21 23.04 В 5 н/о н/о +16.1 +1.8 38 +15 +15 1020.0 961.5
22 23.04 В 4 н/о н/о +15.1 +2.0 41 +14 +14 1020.5 962.0
00 24.04 В 5 н/о н/о +18.4 +2.3 34 +18 +18 1021.8 963.2
01 24.04 В 6 н/о н/о +21.9 +1.6 26 +22 +22 комфорт 1022.0 963.4 +14.7
03 24.04 В 5 н/о н/о +25.8 +0.5 19 +24 +24 комфорт 1021.4 962.8
04 24.04 ЮВ 6 н/о н/о +27.2 +0.1 17 +25 +25 комфорт 1020.3 961.8
06 24.04 В 6 н/о н/о +28.2 -0.9 15 +26 +26 жарко 1018.9 960.4
07 24.04 ЮВ 7 н/о н/о +28.2 -2.8 13 +25 +25 комфорт 1018.5 960.1
09 24.04 В 5 н/о н/о +27.7 -4.3 12 +25 +25 комфорт 1018.6 960.2
10 24.04 В 5 н/о н/о +25.9 -4.6 13 +23 +23 комфорт 1019.2 960.7
12 24.04 ЮВ 4 н/о н/о +21.8 -1.5 21 +21 +21 комфорт 1020.7 962.1
13 24.04 ЮВ 4 н/о н/о +21.2 -0.1 24 +21 +21 комфорт 1021.0 962.4 +29.4
15 24.04 В 5 н/о н/о +20.0 +1.4 29 +20 +20 1020.5 962.0
16 24.04 В 5 н/о н/о +19.0 +1.5 31 +19 +19 1020.3 961.8
18 24.04 В 5 н/о н/о +18.0 +1.5 33 +18 +18 1019.8 961.3
19 24.04 В 6 н/о н/о +17.5 +1.5 34 +17 +17 1019.7 961.2
21 24.04 В 5 н/о н/о +16.8 +2.0 37 +16 +16 1019.9 961.4
22 24.04 В 5 н/о н/о +16.3 +2.7 40 +16 +16 1020.2 961.7
00 25.04 В 5 н/о н/о +19.6 +3.7 35 +20 +20 1020.9 962.3
01 25.04 В 7 н/о н/о +22.4 +4.0 30 +22 +22 комфорт 1020.9 962.3 +15.9
03 25.04 В 6 н/о н/о +26.4 +4.2 24 +25 +25 комфорт 1020.3 961.8
04 25.04 В 6 н/о н/о +27.7 +3.4 21 +26 +26 жарко 1019.4 960.9
06 25.04 В 6 н/о н/о +29.0 +1.5 17 +27 +27 жарко 1017.4 959.0
07 25.04 В 6 н/о н/о +29.6 +1.1 16 +27 +27 жарко 1017.2 958.8
09 25.04 ЮВ 6 н/о н/о +28.3 +0.1 16 +26 +26 жарко 1017.6 959.2
10 25.04 В 5 н/о н/о +26.6 +1.8 20 +25 +25 комфорт 1018.1 959.7
12 25.04 ЮВ 4 н/о н/о +24.0 +2.8 25 +23 +23 комфорт 1019.9 961.4
13 25.04 ЮВ 5 н/о н/о +22.8 +3.4 28 +23 +23 комфорт 1020.2 961.7 +30.2
15 25.04 В 5 н/о н/о +21.1 +3.8 32 +21 +21 комфорт 1020.2 961.7
16 25.04 В 6 н/о н/о +20.5 +4.1 34 +21 +21 комфорт 1020.0 961.5
18 25.04 В 7 н/о н/о +19.3 +3.1 34 +19 +19 1019.9 961.4
19 25.04 В 7 н/о н/о +18.6 +3.3 36 +18 +18 1019.8 961.3
21 25.04 В 6 н/о н/о +17.3 +4.3 42 +16 +16 1020.3 961.8
22 25.04 В 5 н/о н/о +16.7 +5.0 46 +16 +16 1020.7 962.1
00 26.04 В 6 н/о н/о +18.8 +6.0 43 +19 +19 1021.8 963.2
01 26.04 В 7 н/о н/о +20.9 +6.1 38 +22 +22 комфорт 1022.1 963.5 +16.1
03 26.04 В 6 н/о н/о +24.7 +5.0 28 +24 +24 комфорт 1021.2 962.6
04 26.04 ЮВ 7 н/о н/о +25.6 +4.1 25 +25 +25 комфорт 1020.1 961.6

 

Местоположение метеостанции Микатарра (Западная Австралия, Австралия): широта -26.61 долгота 118.55 высота над уровнем моря 519 м.

В архиве по умолчанию представлена погода в Микатарре за последнюю неделю. Архивные данные за месяц целиком и за предыдущие месяцы, начиная с января 2011 года, Вы можете получить, выбрав интересующий диапазон дат из раскрывающегося списка и нажав кнопку "Ввод!".


*Определитесь, кто Вы:
робот инопланетянин человек

Внимание! Время в таблицах - всемирное. Для получения местного времени необходимо прибавить поправку, которая равна 8 ч.

Смотрите также архив погоды в соседних городах и на ближайших метеорологических станциях:

Погода в Маунт Магнет аэропорту (Западная Австралия, Австралия) (181 км)
Погода в Леинстере (Западная Австралия, Австралия) (253 км)
Погода в Леонора аэропорту (Западная Австралия, Австралия) (372 км)
Погода в Ньюмане (Западная Австралия, Австралия) (378 км)
Погода в Мораве (Западная Австралия, Австралия) (381 км)
Погода в Параберду (Западная Австралия, Австралия) (391 км)
Погода в Лавертоне (Западная Австралия, Австралия) (441 км)
Погода в Дауоллину (Западная Австралия, Австралия) (448 км)
Погода в Джеральдтоне (Западная Австралия, Австралия) (451 км)
Погода в Шарк-Бэе (Западная Австралия, Австралия) (502 км)

Пояснения к столбцам:

Ветер - указаны скорость ветра в м/с - средняя за 10 мин, порывы в срок и между сроками (в фигурных скобках) и направление, откуда дует ветер: С - северный, СВ - северо-восточный, В - восточный, ЮВ - юго-восточный, Ю - южный, ЮЗ - юго-западный, З - западный, СЗ - северо-западный.
Видимость - горизонтальная дальность видимости в метрах или километрах. При видимости от 1 до 10 км при отсутствии осадков обычно наблюдается дымка, при ухудшении видимости до 1 км и менее - туман. В сухую погоду видимость может ухудшаться дымом, пылью или мглою.
Явления - указаны атмосферные явления, наблюдавшиеся в срок или в последний час перед сроком; фигурными скобками обозначены явления, наблюдавшиеся между сроками (за 1-3 часа до срока); квадратными скобками обозначены град или гололедные отложения с указанием их диаметра в мм.
Облачность - указаны через наклонную черту общая и нижняя облачность в баллах и высота нижней границы облаков в метрах; квадратными скобками обозначены формы облаков: Ci - перистые, Cs - перисто-слоистые, Cc - перисто-кучевые, Ac - высококучевые, As - высокослоистые, Sc - слоисто-кучевые, Ns - слоисто-дождевые, Cu - кучевые, Cb - кучево-дождевые. Подробнее классификацию облаков см. в Атласе облаков (PDF).
T - Температура воздуха - температура, измеренная на высоте 2 м над землей.
Td - Температура точки росы - температура, при понижении до которой содержащийся в воздухе водяной пар достигнет насыщения.
f - Относительная влажность воздуха - влажноcть воздуха, измеренная на высоте 2 м над землей.
Te - Эффективная температура - температура, которую ощущает одетый по сезону человек в тени. Характеристика душности погоды. При расчете учитывается влияние влажности воздуха и скорости ветра на теплоощущения человека.
Tes - Эффективная температура на солнце - температура, которую ощущает человек, с поправкой на солнечный нагрев. Характеристика знойности погоды. Зависит от высоты солнца над горизонтом, облачности и скорости ветра. Ночью, в пасмурную погоду, а также при ветре 12 м/с и более поправка равна нулю.
P - Атмосферное давление - приведенное к уровню моря атмосферное давление.
Po - Атмосферное давление - измеренное на уровне метеостанции атмосферное давление.
Tmin - Минимальная температура - минимум температуры воздуха на высоте 2 м над землей.
Tmax - Максимальная температура - максимум температуры воздуха на высоте 2 м над землей.
R - Количество осадков - Количество выпавших осадков за период времени, мм. При наведении курсора мыши на число - период времени, за который выпало указанное количество осадков.
R24 - Количество осадков - Количество выпавших осадков за 24 часа, мм.
S - Снежный покров - Высота снежного покрова, см. При наведении курсора мыши на число - состояние снежного покрова и степень покрытия местности в баллах.